Location: Avully
(45.9633°N, 6.0228°E)
Time: 05:24:47
(UTC+00:00)

Cosmos 2082 Rocket - Pass Details

Date: 23 May 2024
Orbit: 832 x 853 km, 71.0° (Epoch: 19 June)

Event Time Altitude Azimuth Distance (km) Brightness Sun altitude
Exits shadow 01:48:44 14° 260° (W) 2,222 4.0 -16.6°
Maximum altitude 01:52:37 27° 311° (NW) 1,594 3.7 -16.2°
Drops below altitude 10° 01:57:25 10° 8° (N) 2,491 5.6 -15.8°
Sets 02:00:17 0° 21° (NNE) 3,429 6.9 -15.5°
